Location: Ecklingerode
(51.5036°N, 10.3122°E)
Time: 07:32:58
(UTC+00:00)

Okean-O - Pass Details

Date: 29 October 2020
Orbit: 638 x 641 km, 98.2° (Epoch: 01 December)

Event Time Altitude Azimuth Distance (km) Brightness Sun altitude
Rises 17:59:42 0° 175° (S) 2,936 6.0 -19.6°
Reaches altitude 10° 18:01:56 10° 180° (S) 2,031 5.2 -20.0°
Maximum altitude 18:06:17 56° 259° (W) 768 3.3 -20.7°
Drops below altitude 10° 18:10:40 10° 338° (NNW) 2,046 5.5 -21.3°
Sets 18:12:56 0° 343° (NNW) 2,960 6.3 -21.7°
